[[{"header":{"parameterUnit":"m.s-1","parameterCategory":1,"la1":30.2991,"la2":30.254,"lo1":-89.0895,"lo2":-89.0444,"dx":0.0017,"dy":0.0017,"nx":28,"ny":28,"refTime":"2023-01-17T09:00:00:Z","depth":0,"parameterNumber":2,"parameterNumberName":"U-component_of_WINDS"},"data":[0,0,0,0,0,0,0,0,0,0,0,0,0,0,0,0,0,0,0,0,0,0,0,0,0,0,0,0,0,0,0,0,0,0,0,0,0,0,0,0,0,0,0,0,0,0,0,0,0,0,0,0,0,0,0,0,0,0,0.4968,0.4969,0,0.4972,0.4972,0.4972,0.4957,0.4957,0.4956,0.4956,0.4959,0.496,0.496,0,0,0,0,0,0,0,0,0,0,0,0,0,0.4949,0.495,0.4968,0.4969,0.4969,0.4972,0.4972,0.4972,0.4957,0.4957,0.4956,0.4956,0.4959,0.496,0.496,0,0,0,0,0,0,0,0,0,0,0,0,0,0.4956,0.495,0.4968,0.4962,0.4961,0.4972,0.4972,0.4972,0.4957,0.4957,0.4956,0.4956,0.4959,0.496,0.496,0.4978,0,0,0.4963,0.4963,0,0,0,0,0,0,0,0,0.4955,0.4956,0.4963,0.4962,0.4962,0.4963,0.4966,0.4974,0.4958,0.4959,0.4956,0.4955,0.4961,0.4962,0.4964,0.4978,0.4978,0.4963,0.4963,0.4963,0.4964,0,0,0,0,0,0,0,0.4955,0.4956,0.497,0.4963,0.4962,0.4958,0.4959,0.4968,0.4964,0.4959,0.4958,0.4958,0.4961,0.4963,0.4964,0.4978,0.4963,0.4963,0.4964,0.4964,0.5006,0.5006,0,0,0,0,0,0,0.4955,0.4956,0.497,0.497,0.4957,0.4959,0.4959,0.4963,0.4963,0.4963,0.4959,0.4958,0.4962,0.4963,0.4964,0.4984,0.4963,0.4964,0.4965,0.5005,0.5006,0.5007,0,0,0,0,0,0,0.4955,0.4957,0.4969,0.4963,0.4964,0.496,0.4965,0.4964,0.4966,0.4963,0.4963,0.4962,0.4962,0.4963,0.4974,0.4984,0.4964,0.4965,0.5004,0.5005,0.5006,0.5024,0,0,0,0,0,0,0.4955,0.4957,0.4963,0.4963,0.4964,0.498,0.4965,0.4964,0.4967,0.4966,0.4966,0.4966,0.4961,0.4973,0.4975,0.4984,0.4966,0.5004,0.5005,0.5006,0.5023,0.5026,0.5028,0,0,0,0,0,0.4954,0.4968,0.4964,0.4966,0.4973,0.4981,0.4982,0.4976,0.4968,0.4975,0.4973,0.4966,0.4982,0.4974,0.4976,0.4986,0.5003,0.5004,0.5006,0.5022,0.5025,0.5028,0,0,0,0,0,0,0.497,0.4968,0.4963,0.4978,0.498,0.4978,0.4987,0.498,0.4984,0.4983,0.4976,0.4976,0.4989,0.4988,0.498,0.5003,0.4991,0.4993,0.5002,0.5006,0.5009,0.5009,0.4966,0,0,0,0,0,0.4976,0.4983,0.498,0.4993,0.4995,0.499,0.4994,0.4989,0.4991,0.4992,0.4991,0.4992,0.4998,0.5002,0.5007,0.5022,0.5022,0.503,0.5033,0.5035,0.5037,0.5045,0.5049,0.5012,0.5012,0.5012,0,0,0.4987,0.4987,0.4991,0.4997,0.4998,0.5005,0.4991,0.4999,0.5004,0.4993,0.5004,0.5003,0.5004,0.5018,0.5024,0.5018,0.5047,0.5037,0.5039,0.504,0.5047,0.5051,0.5054,0.5013,0.5013,0.5012,0,0,0.5011,0.5011,0.5022,0.5023,0.5025,0.5022,0.5024,0.5024,0.5023,0.5033,0.5025,0.503,0.504,0.5042,0.5044,0.5067,0.5061,0.5069,0.5084,0.5092,0.5094,0.5097,0.5106,0.5109,0.5071,0.5071,0.5071,0,0.5025,0.5035,0.5029,0.5038,0.504,0.5029,0.504,0.5042,0.5044,0.5046,0.504,0.5052,0.5052,0.5065,0.5071,0.5073,0.5076,0.5069,0.5095,0.5097,0.5099,0.5107,0.5111,0.5072,0.5072,0.5072,0.5071,0,0.5052,0.506,0.5068,0.5071,0.5075,0.5084,0.5079,0.5083,0.5078,0.5076,0.5087,0.5086,0.5091,0.5094,0.5089,0.5107,0.5103,0.5096,0.5084,0.5104,0.5112,0.5115,0.5073,0.5073,0.5073,0.5072,0,0,0.5088,0.5086,0.509,0.5091,0.5091,0.5096,0.5105,0.511,0.5114,0.5116,0.5123,0.5131,0.5124,0.5126,0.5121,0.5128,0.5147,0.512,0.512,0.5125,0.5167,0.5173,0.5177,0.5143,0.5143,0.5144,0.5167,0,0.5112,0.5127,0.5121,0.5137,0.5144,0.5133,0.5141,0.5142,0.514,0.5145,0.5142,0.5148,0.5138,0.514,0.5146,0.5144,0.5156,0.5142,0.515,0.515,0.515,0.5181,0.5187,0.5209,0.517,0.517,0.517,0,0.5142,0.5145,0.5162,0.516,0.5163,0.517,0.5173,0.5178,0.5179,0.5177,0.5179,0.5172,0.5181,0.5169,0.5181,0.5171,0.5174,0.5173,0.5174,0.5175,0.5162,0.5183,0.5216,0.5219,0.5175,0.5175,0.5174,0,0.5166,0.5175,0.5185,0.5187,0.5185,0.5191,0.519,0.519,0.5193,0.5196,0.5198,0.5201,0.5203,0.5206,0.5201,0.5193,0.5214,0.5201,0.5212,0.5212,0.5218,0.5218,0.5252,0.5219,0.5218,0.5218,0.5218,0,0.5194,0.5205,0.5196,0.5203,0.5215,0.5207,0.5219,0.5217,0.5217,0.5224,0.5214,0.5221,0.5213,0.5218,0.5214,0.5224,0.5225,0.5224,0.5223,0.5225,0.5225,0.5227,0.5226,0.5219,0.5219,0.5219,0.5219,0,0.5224,0.5219,0.523,0.5227,0.5227,0.5236,0.5233,0.524,0.5236,0.5244,0.5246,0.5241,0.5246,0.5241,0.5247,0.5244,0.5258,0.5254,0.5258,0.5257,0.5268,0.5267,0.5306,0.5311,0.5273,0.5274,0.5274,0,0.5242,0.525,0.5248,0.5251,0.5251,0.5257,0.526,0.5253,0.5256,0.5257,0.5263,0.5268,0.5271,0.5281,0.5278,0.5282,0.5278,0.5291,0.5279,0.5281,0.5279,0.5279,0.528,0.5294,0.5295,0.5295,0.5295,0,0.5275,0.5272,0.5276,0.5279,0.5283,0.5285,0.5287,0.529,0.5283,0.5287,0.5292,0.5295,0.53,0.5305,0.5308,0.5307,0.53,0.5299,0.5302,0.5305,0.5307,0.5306,0.5265,0.5298,0.5298,0.5298,0.5298,0.5298,0.5299,0.5306,0.5305,0.531,0.5311,0.5312,0.5318,0.5315,0.532,0.5323,0.5319,0.5326,0.5325,0.5329,0.5329,0.5334,0.5329,0.5333,0.5334,0.5335,0.5337,0.5305,0.5334,0.5334,0.5334,0.5334,0.5334,0,0.5332,0.5331,0.5336,0.5338,0.5342,0.5334,0.5335,0.5339,0.5345,0.5346,0.5349,0.5356,0.536,0.5357,0.5361,0.5366,0.5362,0.5367,0.5367,0.5367,0.5341,0.5339,0.5369,0.5369,0.5369,0.5369,0.5369,0.5369,0.5349,0.536,0.5357,0.5367,0.5366,0.5373,0.5374,0.5375,0.5376,0.5383,0.5387,0.5384,0.5384,0.5387,0.5391,0.539,0.5392,0.5398,0.5396,0.5372,0.5369,0.5365,0.5363,0.5398,0.5398,0.5421,0.5421,0.5421]},{"header":{"parameterUnit":"m.s-1","parameterCategory":1,"la1":30.2991,"la2":30.254,"lo1":-89.0895,"lo2":-89.0444,"dx":0.0017,"dy":0.0017,"nx":28,"ny":28,"refTime":"2023-01-17T09:00:00:Z","depth":0,"parameterNumber":3,"parameterNumberName":"V-component_of_WINDS"},"data":[0,0,0,0,0,0,0,0,0,0,0,0,0,0,0,0,0,0,0,0,0,0,0,0,0,0,0,0,0,0,0,0,0,0,0,0,0,0,0,0,0,0,0,0,0,0,0,0,0,0,0,0,0,0,0,0,0,0,4.7784,4.7784,0,4.7788,4.7788,4.7788,4.7725,4.7723,4.7721,4.772,4.7721,4.7723,4.7724,0,0,0,0,0,0,0,0,0,0,0,0,0,4.7721,4.7723,4.7784,4.7784,4.7784,4.7788,4.7788,4.7788,4.7725,4.7723,4.7721,4.7719,4.7721,4.7723,4.7724,0,0,0,0,0,0,0,0,0,0,0,0,0,4.7739,4.7723,4.7784,4.7753,4.7751,4.7788,4.7788,4.7788,4.7725,4.7723,4.772,4.7718,4.772,4.7722,4.7725,4.7791,0,0,4.7732,4.7733,0,0,0,0,0,0,0,0,4.7738,4.7742,4.7758,4.7755,4.7752,4.7753,4.7766,4.7789,4.7726,4.7735,4.772,4.7717,4.7734,4.7735,4.7741,4.7791,4.7791,4.7732,4.7734,4.7735,4.7736,0,0,0,0,0,0,0,4.7737,4.7741,4.7785,4.7758,4.7755,4.7739,4.7739,4.777,4.7748,4.7734,4.7729,4.7731,4.7732,4.7739,4.7741,4.7791,4.7732,4.7735,4.7736,4.7737,4.7898,4.7901,0,0,0,0,0,0,4.774,4.774,4.7785,4.7785,4.7739,4.7742,4.7742,4.7755,4.7748,4.7744,4.7733,4.7728,4.7736,4.7738,4.774,4.782,4.7735,4.7737,4.7739,4.7895,4.7899,4.7902,0,0,0,0,0,0,4.7739,4.7745,4.7785,4.7762,4.7766,4.7746,4.7762,4.7757,4.7764,4.7747,4.7743,4.7744,4.7734,4.7737,4.778,4.7819,4.7738,4.7741,4.7892,4.7896,4.79,4.7977,0,0,0,0,0,0,4.7738,4.7745,4.777,4.7763,4.7767,4.7825,4.7764,4.7759,4.7769,4.7762,4.7757,4.7753,4.7732,4.7776,4.7782,4.782,4.7742,4.7888,4.7894,4.7899,4.7971,4.7983,4.7994,0,0,0,0,0,4.7736,4.779,4.7771,4.7777,4.7798,4.7827,4.7829,4.7805,4.7772,4.7797,4.7787,4.7754,4.7813,4.7781,4.7787,4.7827,4.7886,4.7892,4.7898,4.7966,4.7981,4.7994,0,0,0,0,0,0,4.78,4.7788,4.7768,4.7821,4.7826,4.7816,4.7847,4.7821,4.7834,4.7827,4.7795,4.7794,4.7843,4.7838,4.7803,4.7892,4.7844,4.7852,4.7893,4.7907,4.7918,4.7919,4.7744,0,0,0,0,0,4.7821,4.7846,4.7834,4.7883,4.7886,4.7867,4.7878,4.7859,4.7862,4.7863,4.7856,4.7859,4.7879,4.7892,4.7909,4.797,4.7969,4.8,4.8012,4.8021,4.8029,4.8063,4.8077,4.7922,4.7922,4.7922,0,0,4.7864,4.786,4.7878,4.7896,4.7897,4.7924,4.7868,4.7898,4.7918,4.7867,4.7908,4.7903,4.7905,4.7957,4.798,4.7955,4.8071,4.8029,4.8037,4.8039,4.8071,4.8086,4.8099,4.7927,4.7926,4.7925,0,0,4.7956,4.7955,4.7997,4.8,4.8003,4.799,4.8001,4.7996,4.7991,4.8031,4.7995,4.8017,4.8051,4.8055,4.8062,4.8158,4.8129,4.8164,4.8225,4.8259,4.8271,4.8282,4.8318,4.8332,4.8172,4.8172,4.8172,0,4.8008,4.8048,4.8021,4.8055,4.8065,4.8022,4.8065,4.8068,4.8077,4.8085,4.8057,4.8101,4.8099,4.8153,4.8177,4.8183,4.8194,4.8165,4.8271,4.8282,4.8291,4.8326,4.834,4.8176,4.8176,4.8175,4.8175,0,4.8113,4.8142,4.8175,4.8187,4.82,4.8238,4.8218,4.8234,4.8214,4.8205,4.8247,4.8244,4.8261,4.8272,4.8252,4.8324,4.8309,4.8277,4.8228,4.8311,4.8343,4.8356,4.8183,4.8181,4.818,4.8179,0,0,4.8245,4.8244,4.8257,4.8263,4.8265,4.8286,4.8322,4.834,4.8356,4.8364,4.8395,4.8426,4.8397,4.8404,4.8384,4.8414,4.8494,4.8378,4.8378,4.8402,4.8576,4.8601,4.8617,4.8474,4.8476,4.8478,4.8576,0,4.8336,4.84,4.8379,4.8444,4.8471,4.8431,4.8464,4.8468,4.846,4.8482,4.8472,4.8496,4.8455,4.846,4.8487,4.8478,4.8528,4.8471,4.8503,4.8505,4.8506,4.8633,4.866,4.8753,4.8588,4.859,4.8592,0,4.8451,4.8466,4.8535,4.8535,4.8545,4.8575,4.8591,4.8612,4.8617,4.8609,4.8619,4.8594,4.863,4.8581,4.8631,4.8593,4.8604,4.8602,4.8605,4.8609,4.8555,4.8642,4.8781,4.8796,4.8611,4.8609,4.8608,0,4.8544,4.858,4.8627,4.8633,4.8634,4.8656,4.8657,4.8659,4.8673,4.8686,4.8695,4.8712,4.8722,4.8736,4.8716,4.8682,4.8771,4.8719,4.8766,4.8767,4.8787,4.8787,4.8933,4.8792,4.8792,4.8792,4.8792,0,4.8649,4.8693,4.8669,4.8698,4.8747,4.8722,4.877,4.8767,4.877,4.8797,4.8763,4.879,4.8761,4.8785,4.8769,4.8815,4.8819,4.8814,4.881,4.8819,4.882,4.8827,4.8821,4.8795,4.8795,4.8794,4.8793,0,4.876,4.8746,4.8795,4.8793,4.8793,4.8829,4.8827,4.8854,4.8844,4.888,4.8886,4.8871,4.8898,4.888,4.8905,4.8895,4.8956,4.8941,4.8955,4.8952,4.9001,4.8997,4.9158,4.9179,4.9023,4.9025,4.9026,0,4.8829,4.8863,4.8865,4.8882,4.8887,4.8914,4.8928,4.8905,4.8921,4.8931,4.8957,4.8981,4.8999,4.9044,4.9035,4.9055,4.9042,4.9097,4.9044,4.9053,4.9045,4.9045,4.9049,4.9108,4.911,4.9111,4.9112,0,4.8954,4.8946,4.8969,4.899,4.9009,4.9024,4.9035,4.9051,4.9028,4.9048,4.9076,4.9091,4.9119,4.9144,4.9161,4.9161,4.9134,4.9129,4.9141,4.9151,4.9159,4.9158,4.8986,4.9125,4.9124,4.9123,4.9122,4.9122,4.9048,4.9077,4.9085,4.9112,4.9119,4.9132,4.9158,4.9153,4.9176,4.9199,4.9183,4.9217,4.9223,4.9243,4.9248,4.9274,4.9251,4.9269,4.9273,4.9279,4.9287,4.9154,4.9276,4.9276,4.9276,4.9275,4.9275,0,4.9173,4.9177,4.9202,4.9221,4.9243,4.9217,4.9229,4.9249,4.928,4.9288,4.9308,4.9342,4.9366,4.936,4.9382,4.9404,4.9393,4.9411,4.941,4.9411,4.9304,4.9293,4.9421,4.9421,4.9421,4.9421,4.9421,4.9421,4.9241,4.929,4.9284,4.9336,4.9339,4.9374,4.9383,4.9395,4.9403,4.9442,4.9463,4.946,4.9463,4.9485,4.9507,4.9505,4.9515,4.9539,4.9533,4.9433,4.9419,4.9405,4.9394,4.9541,4.9541,4.9638,4.9639,4.9639]}]]